Weather History for Miles City, MT

Change the Weather History Date:

Friday, February 22, 2013

  Actual Average Record
Temperature  
Mean Temperature 32 °F 26 °F  
Max Temperature 45 °F 38 °F 68 °F (2002)
Min Temperature 18 °F 15 °F -18 °F (1993)
Degree Days  
Heating Degree Days 33 39  
Month to date heating degree days 732 913  
Since 1 July heating degree days 5012 5509  
Cooling Degree Days 0 0  
Month to date cooling degree days 0 0  
Year to date cooling degree days 0 0  
Moisture  
Dew Point 18 °F    
Average Humidity 61    
Maximum Humidity 91    
Minimum Humidity 31    
Precipitation  
Precipitation 0.00 in 0.01 in 1.10 in (1942)
Month to date precipitation T 0.17  
Year to date precipitation 0.18 0.49  
Sea Level Pressure  
Sea Level Pressure 29.88 in    
Wind  
Wind Speed 8 mph (South)    
Max Wind Speed 18 mph    
Max Gust Speed 21 mph    
Visibility 10 miles    
Events      
T = Trace of Precipitation, MM = Missing Value Source: NWS Daily Summary

Daily Weather History Graph

Daily Weather History Graph

Search for Another Location

Airport:

Trip Planner

Search our weather history database for the weather conditions in past years. The results will help you decide how hot, cold, wet, or windy it might be!

Date:

Astronomy

Feb. 22, 2013 Rise Set
Actual Time 6:54 AM MST 5:39 PM MST
Civil Twilight 6:24 AM MST 6:10 PM MST
Nautical Twilight 5:49 AM MST 6:45 PM MST
Astronomical Twilight 5:14 AM MST 7:20 PM MST
Moon 2:47 PM MST (2/22) 4:49 AM MST (2/22)
Length of Visible Light 11h 46m
Length of Day
10h 45m
Waxing Gibbous, 90% of the Moon is Illuminated
Feb 22
Waxing Gibbous
Feb 25
Full
Mar 4
Last Quarter
Mar 11
New
Mar 19
First Quarter

Hourly Weather History & Observations

Time (MST) Temp. Windchill Dew Point Humidity Pressure Visibility Wind Dir Wind Speed Gust Speed Precip Events Conditions
12:53 AM 23.0 °F 11.7 °F 18.0 °F 81% 29.97 in 10.0 mi SSE 11.5 mph - N/A   Clear
1:53 AM 21.0 °F 11.4 °F 18.0 °F 88% 29.97 in 10.0 mi SSE 8.1 mph - N/A   Clear
2:53 AM 19.9 °F 12.1 °F 17.1 °F 89% 29.96 in 10.0 mi SSE 5.8 mph - N/A   Clear
3:53 AM 19.9 °F 11.1 °F 16.0 °F 85% 29.95 in 10.0 mi SSE 6.9 mph - N/A   Clear
4:53 AM 19.0 °F 10.0 °F 15.1 °F 85% 29.96 in 10.0 mi SSE 6.9 mph - N/A   Clear
5:53 AM 18.0 °F 8.7 °F 14.0 °F 84% 29.97 in 10.0 mi SE 6.9 mph - N/A   Clear
6:53 AM 19.0 °F 8.2 °F 15.1 °F 85% 29.98 in 10.0 mi SSE 9.2 mph - N/A   Mostly Cloudy
7:53 AM 21.0 °F 12.4 °F 17.1 °F 85% 29.99 in 10.0 mi SSE 6.9 mph - N/A   Overcast
8:53 AM 24.1 °F 17.0 °F 19.9 °F 84% 29.97 in 10.0 mi SSE 5.8 mph - N/A   Clear
9:53 AM 30.0 °F 24.1 °F 21.0 °F 69% 29.96 in 10.0 mi SW 5.8 mph - N/A   Clear
10:53 AM 37.9 °F 30.5 °F 21.9 °F 53% 29.94 in 10.0 mi West 11.5 mph - N/A   Clear
11:53 AM 41.0 °F 35.2 °F 19.9 °F 43% 29.91 in 10.0 mi WSW 9.2 mph - N/A   Clear
12:53 PM 43.0 °F 37.7 °F 19.0 °F 38% 29.88 in 10.0 mi WSW 9.2 mph - N/A   Clear
1:53 PM 44.1 °F 37.4 °F 18.0 °F 35% 29.84 in 10.0 mi West 13.8 mph 18.4 mph N/A   Partly Cloudy
2:53 PM 44.1 °F 38.6 °F 16.0 °F 32% 29.83 in 10.0 mi WSW 10.4 mph 18.4 mph N/A   Mostly Cloudy
3:53 PM 44.1 °F 37.7 °F 16.0 °F 32% 29.82 in 10.0 mi WSW 12.7 mph - N/A   Partly Cloudy
4:53 PM 43.0 °F 38.2 °F 17.1 °F 35% 29.81 in 10.0 mi SW 8.1 mph - N/A   Scattered Clouds
5:53 PM 37.0 °F 31.6 °F 17.1 °F 44% 29.81 in 10.0 mi South 6.9 mph - N/A   Partly Cloudy
6:53 PM 37.0 °F 31.0 °F 19.0 °F 48% 29.81 in 10.0 mi South 8.1 mph - N/A   Overcast
7:53 PM 30.9 °F 24.3 °F 19.0 °F 61% 29.79 in 10.0 mi SSE 6.9 mph - N/A   Mostly Cloudy
8:53 PM 28.9 °F 21.9 °F 19.9 °F 69% 29.78 in 10.0 mi SSE 6.9 mph - N/A   Clear
9:53 PM 28.0 °F 20.8 °F 19.0 °F 69% 29.75 in 10.0 mi SSE 6.9 mph - N/A   Clear
10:53 PM 28.0 °F 19.3 °F 19.0 °F 69% 29.72 in 10.0 mi SSE 9.2 mph - N/A   Clear
11:53 PM 27.0 °F 18.0 °F 18.0 °F 69% 29.70 in 10.0 mi SSE 9.2 mph - N/A   Clear